星链-30454 (STARLINK-30454 )

导读

STARLINK-30454是美国SpaceX星链星座的低轨通信卫星,于2023年9月24日发射入轨,属于星链第二代卫星组网的组成部分。它依托星链先进的卫星技术,配备激光星间链路与相控阵天线,可支撑卫星间直接通信,为全球提供高速宽带互联网覆盖,尤其适配偏远地区、海洋等场景,是星链全球太空互联网布局的重要节点,推动低轨卫星通信网络能力持续升级。

Basic Information
目录编号:
57915
目录名称:
STARLINK-30454
国际标识:
2023-147C
轨道中心:
EARTH
卫星名称:
星链-30454
卫星全名:
星链-30454 (STARLINK-30454 )
卫星状态:
在轨 (已飞行998 天)
发射日期:
2023-09-24 UTC
国别 :
美国 (US)
星等 :
--
Orbit Information
数据来源 国际轨道数据 AOE轨道数据
星历时间 2026-06-18T13:04:39+0800
7小时前
查看轨道信息
2026-06-16T12:00:00+0800
2天前
查看轨道信息
半长轴 6861.176km 6861.274km
偏心率 0.0001152 0.0001053
轨道倾角 43.003° 43.001°
近地点辐角 271.920° 255.913°
升交点赤经 117.333° 128.884°
平近点角 88.152° 5.467°
近地点 482.248km 482.414km
远地点 483.83km 483.86km
周期 94.267分钟 94.269分钟
每日圈数 15.275834 15.275508
Detailed Information
固有亮度:
5
最大亮度:
0.3
卫星平台:
Starlink v2.0 mini
覆盖范围:
全球
运营商:
太空探索技术公司
运营商所在国:
美国
制造商(研发单位):
太空探索技术公司
制造商所在国:
美国
使用方式:
暂无
Satellite Introduction
星链(Starlink)计划是由太空探索技术公司(SpaceX)提出的一个巨型低轨卫星互联网星座项目,计划在2019年至2024年间在太空搭建由约1.2万颗卫星组成的“星链”网络,其中1584颗将部署在地球上空550千米处的近地轨道,并从2020年开始工作。该卫星仍在工作。
2D Orbit Map
3D Orbit Map
Orbit Altitude Analysis Chart
Orbit Inclination Analysis Chart
Orbit Comprehensive Analysis Chart
View Comprehensive Chart